CZ-6A DEB, 60774

Orbit data source: Space-Track

CZ-6A DEB, 60774 is space debris in LEO originally from a launch on Tue, 06 Aug 2024 UTC launched from the Taiyaun Space Center, China (TSC). Debris objects in space refer to the collection of defunct objects orbiting the Earth. Examples of debris include non-operational satellites, rocket bodies, and fragments generated from explosions, collisions, or faulty payload assembly.

Loading next visibility...
Identifier
60774, 2024-140EZ
Orbit
LEO
Country
Flag of CNCN / PRC
Related business
Manufacturer
SAST
Mission
Spacecraft
Bus & Motor
Unknown
Mass
Unknown
Launch date (UTC)
2024-08-06 (2 years ago)
Launch vehicle
Unknown
Launch site
Taiyaun Space Center, China (TSC)
Object type
Payload
Rocket body
Debris
Shape & HBR
Unknown shape, 0.1 m
Radar Cross Section
Medium (>0.1 m² and <1 m²)

Expand to show TLE details & history
Last TLE update: 12 hours ago

TLE from 12 hours ago
0 CZ-6A DEB
1 60774U 24140EZ  26171.33412733  .00069860  00000-0  31939-2 0  9994
2 60774  89.3083 294.5983 0054533  70.7311 289.9821 15.18920101100509
Epoch: 2026-06-20T08:01Z
TLE epoch observation values (Epoch: 2026-06-20T08:01:08.601Z)
Latitude
-0.00006°
Longitude
-94.23778°
Altitude
499.641 km
Speed
7.622 km/s
True Right ascension
19h 38m 23s
True Declination
0° 00' 00"
Sunlit
Object was in full shadow at epoch
Visualization orbit readout
Latitude
Unknown
Longitude
Unknown
Altitude
Unknown
Speed
Unknown
Apparent Right ascension
Unknown
Apparent Declination
Unknown
Sunlit
N/A
Visualization observer readout
Local Sidereal Time
07:22:02
Azimuth
Unknown
Elevation
Unknown
Doppler factor
Unknown
Orbital elements
Apogee altitude
543.453 km
Perigee altitude
468.372 km
Semi-major axis
6,884.049 km
Eccentricity
0.00545
Inclination
89.3083°
RAAN
294.5983°
Arg. of periapsis
70.7311°
True anomaly
289.39346°
Mean anomaly
289.9821°
Eccentric anomaly
289.68791°
Mean motion
3.79994 °/min
Orbital period
94.74 mins
BSTAR
0.0031939
Loading maneuver chart data...
Computing Atmospheric mass density...
Loading historical data...
Loading historical data...
Loading historical data...
Loading historical data...
Loading historical data...
Loading historical data...
Loading historical data...

Documentation

Showing up to 5 results
|